When you browse on this site, cookies collect data to enhance your experience and personalize the content and advertising you see.
Visit our Privacy Policy to learn more. By continuing to use the site, you agree to this use of cookies and data.

Météo par heure à Malin

Ce jour, 29 Septembre, Mardi

Heure Température Précipitation Vent Pression Humidité
00:00 +13°C° 0 mm 3 m/s 750 mmHg 60%
01:00 +13°C° 0 mm 3 m/s 750 mmHg 61%
02:00 +12°C° 0 mm 3 m/s 749 mmHg 62%
03:00 +12°C° 0 mm 3 m/s 749 mmHg 65%
04:00 +11°C° 0 mm 3 m/s 749 mmHg 68%
05:00 +11°C° 0 mm 3 m/s 748 mmHg 71%
06:00 +12°C° 0 mm 3 m/s 748 mmHg 70%
07:00 +13°C° 0 mm 3 m/s 748 mmHg 68%
08:00 +14°C° 0 mm 3 m/s 747 mmHg 67%
09:00 +16°C° 0 mm 3 m/s 747 mmHg 64%
10:00 +18°C° 0 mm 3 m/s 747 mmHg 62%
11:00 +19°C° 0 mm 3 m/s 747 mmHg 59%
12:00 +20°C° 0 mm 3 m/s 746 mmHg 58%
13:00 +20°C° 0 mm 3 m/s 746 mmHg 57%
14:00 +21°C° 0 mm 3 m/s 745 mmHg 56%
15:00 +20°C° 0 mm 3 m/s 745 mmHg 57%
16:00 +20°C° 0 mm 3 m/s 745 mmHg 59%
17:00 +20°C° 0 mm 3 m/s 744 mmHg 60%
18:00 +19°C° 0.2 mm 3 m/s 744 mmHg 64%
19:00 +18°C° 0.2 mm 3 m/s 744 mmHg 68%
20:00 +17°C° 0.2 mm 4 m/s 744 mmHg 72%
21:00 +17°C° 0.2 mm 4 m/s 743 mmHg 71%
22:00 +16°C° 0.2 mm 5 m/s 743 mmHg 71%
23:00 +16°C° 0.2 mm 5 m/s 742 mmHg 70%

Demain, 30 Septembre, Mercredi

Heure Température Précipitation Vent Pression Humidité
00:00 +16°C° 0.5 mm 5 m/s 742 mmHg 72%
01:00 +15°C° 0.5 mm 5 m/s 742 mmHg 75%
02:00 +15°C° 0.5 mm 5 m/s 742 mmHg 78%
03:00 +15°C° 0.1 mm 6 m/s 741 mmHg 76%
04:00 +14°C° 0.1 mm 6 m/s 741 mmHg 74%
05:00 +14°C° 0.1 mm 6 m/s 740 mmHg 72%
06:00 +14°C° 0.2 mm 7 m/s 740 mmHg 72%
07:00 +14°C° 0.2 mm 7 m/s 740 mmHg 71%
08:00 +14°C° 0.2 mm 7 m/s 740 mmHg 70%
09:00 +12°C° 0.3 mm 7 m/s 740 mmHg 75%
10:00 +12°C° 0.3 mm 8 m/s 740 mmHg 80%
11:00 +12°C° 0.3 mm 8 m/s 740 mmHg 86%
12:00 +12°C° 0.3 mm 8 m/s 740 mmHg 86%
13:00 +11°C° 0.3 mm 7 m/s 740 mmHg 87%
14:00 +11°C° 0.3 mm 7 m/s 740 mmHg 88%
15:00 +11°C° 0.1 mm 7 m/s 741 mmHg 89%
16:00 +11°C° 0.1 mm 7 m/s 741 mmHg 89%
17:00 +11°C° 0.1 mm 6 m/s 741 mmHg 90%
18:00 +11°C° 0 mm 6 m/s 741 mmHg 90%
19:00 +12°C° 0 mm 5 m/s 741 mmHg 90%
20:00 +12°C° 0 mm 5 m/s 742 mmHg 91%
21:00 +12°C° 0 mm 4 m/s 742 mmHg 91%
22:00 +12°C° 0 mm 4 m/s 742 mmHg 92%
23:00 +12°C° 0 mm 4 m/s 741 mmHg 92%

Après-demain, 1 Octobre, Jeudi

Heure Température Précipitation Vent Pression Humidité
00:00 +12°C° 0.1 mm 4 m/s 741 mmHg 92%
01:00 +12°C° 0.1 mm 4 m/s 741 mmHg 93%
02:00 +12°C° 0.1 mm 4 m/s 741 mmHg 93%
03:00 +13°C° 0.8 mm 5 m/s 741 mmHg 93%
04:00 +13°C° 0.8 mm 5 m/s 741 mmHg 93%
05:00 +13°C° 0.8 mm 5 m/s 741 mmHg 92%
06:00 +13°C° 0 mm 5 m/s 742 mmHg 91%
07:00 +13°C° 0 mm 5 m/s 742 mmHg 90%
08:00 +13°C° 0 mm 6 m/s 742 mmHg 89%
09:00 +14°C° 0 mm 6 m/s 742 mmHg 84%
10:00 +15°C° 0 mm 5 m/s 742 mmHg 79%
11:00 +16°C° 0 mm 5 m/s 743 mmHg 74%
12:00 +17°C° 0.3 mm 6 m/s 743 mmHg 72%
13:00 +17°C° 0.3 mm 6 m/s 743 mmHg 70%
14:00 +19°C° 0.3 mm 6 m/s 743 mmHg 69%
15:00 +17°C° 0.4 mm 6 m/s 743 mmHg 71%
16:00 +16°C° 0.4 mm 5 m/s 743 mmHg 74%
17:00 +16°C° 0.4 mm 5 m/s 743 mmHg 77%
18:00 +15°C° 0.1 mm 5 m/s 743 mmHg 79%
19:00 +14°C° 0.1 mm 5 m/s 744 mmHg 80%
20:00 +14°C° 0.1 mm 5 m/s 744 mmHg 82%
21:00 +14°C° 0.1 mm 4 m/s 744 mmHg 82%
22:00 +13°C° 0.1 mm 4 m/s 744 mmHg 81%
23:00 +13°C° 0.1 mm 4 m/s 743 mmHg 81%

2 Octobre, Vendredi

Heure Température Précipitation Vent Pression Humidité
00:00 +13°C° 0.1 mm 4 m/s 744 mmHg 82%
01:00 +13°C° 0.1 mm 4 m/s 744 mmHg 84%
02:00 +12°C° 0.1 mm 4 m/s 744 mmHg 86%
03:00 +12°C° 0 mm 4 m/s 744 mmHg 89%
04:00 +12°C° 0 mm 4 m/s 744 mmHg 92%
05:00 +12°C° 0 mm 4 m/s 744 mmHg 94%
06:00 +12°C° 0 mm 5 m/s 744 mmHg 92%
07:00 +13°C° 0 mm 5 m/s 744 mmHg 89%
08:00 +14°C° 0 mm 6 m/s 745 mmHg 87%
09:00 +15°C° 0.1 mm 6 m/s 745 mmHg 81%
10:00 +16°C° 0.1 mm 6 m/s 745 mmHg 75%
11:00 +17°C° 0.1 mm 6 m/s 745 mmHg 69%
12:00 +17°C° 0.4 mm 5 m/s 746 mmHg 68%
13:00 +17°C° 0.4 mm 5 m/s 746 mmHg 66%
14:00 +19°C° 0.4 mm 5 m/s 746 mmHg 65%
15:00 +17°C° 0.6 mm 5 m/s 746 mmHg 69%
16:00 +17°C° 0.6 mm 4 m/s 746 mmHg 73%
17:00 +15°C° 0.6 mm 4 m/s 746 mmHg 77%
18:00 +16°C° 0.3 mm 3 m/s 746 mmHg 80%
19:00 +14°C° 0.3 mm 3 m/s 747 mmHg 84%
20:00 +13°C° 0.3 mm 3 m/s 747 mmHg 87%
21:00 +13°C° 0.2 mm 3 m/s 747 mmHg 89%
22:00 +12°C° 0.2 mm 3 m/s 747 mmHg 91%
23:00 +12°C° 0.2 mm 3 m/s 747 mmHg 92%

3 Octobre, Samedi

Heure Température Précipitation Vent Pression Humidité
00:00 +12°C° 0 mm 3 m/s 747 mmHg 93%
01:00 +11°C° 0 mm 3 m/s 747 mmHg 93%
02:00 +11°C° 0 mm 3 m/s 747 mmHg 94%
03:00 +11°C° 0 mm 3 m/s 747 mmHg 94%
04:00 +12°C° 0 mm 2 m/s 747 mmHg 94%
05:00 +12°C° 0 mm 2 m/s 747 mmHg 95%
06:00 +12°C° 0 mm 3 m/s 747 mmHg 92%
07:00 +12°C° 0 mm 3 m/s 747 mmHg 90%
08:00 +13°C° 0 mm 3 m/s 747 mmHg 88%
09:00 +14°C° 0 mm 3 m/s 748 mmHg 84%
10:00 +16°C° 0 mm 3 m/s 748 mmHg 80%
11:00 +17°C° 0 mm 3 m/s 748 mmHg 76%
12:00 +17°C° 0.4 mm 3 m/s 747 mmHg 76%
13:00 +18°C° 0.4 mm 3 m/s 747 mmHg 76%
14:00 +18°C° 0.4 mm 3 m/s 747 mmHg 77%
15:00 +17°C° 0.4 mm 3 m/s 747 mmHg 82%
16:00 +16°C° 0.4 mm 2 m/s 747 mmHg 87%
17:00 +15°C° 0.4 mm 1 m/s 746 mmHg 92%
18:00 +15°C° 0.2 mm 2 m/s 746 mmHg 92%
19:00 +15°C° 0.2 mm 2 m/s 747 mmHg 91%
20:00 +14°C° 0.2 mm 3 m/s 747 mmHg 91%
21:00 +14°C° 0.1 mm 3 m/s 746 mmHg 90%
22:00 +14°C° 0.1 mm 3 m/s 746 mmHg 90%
23:00 +14°C° 0.1 mm 3 m/s 746 mmHg 90%

4 Octobre, Dimanche

Heure Température Précipitation Vent Pression Humidité
00:00 +14°C° 0 mm 3 m/s 746 mmHg 90%
01:00 +14°C° 0 mm 3 m/s 746 mmHg 90%
02:00 +14°C° 0 mm 3 m/s 746 mmHg 91%
03:00 +15°C° 0 mm 2 m/s 745 mmHg 90%
04:00 +15°C° 0 mm 2 m/s 745 mmHg 89%
05:00 +15°C° 0 mm 1 m/s 745 mmHg 88%
06:00 +15°C° 0.1 mm 1 m/s 745 mmHg 88%
07:00 +15°C° 0.1 mm 1 m/s 745 mmHg 87%
08:00 +15°C° 0.1 mm 2 m/s 746 mmHg 86%
09:00 +16°C° 0.1 mm 2 m/s 746 mmHg 85%
10:00 +16°C° 0.1 mm 2 m/s 746 mmHg 84%
11:00 +17°C° 0.1 mm 2 m/s 746 mmHg 83%
12:00 +18°C° 0 mm 3 m/s 746 mmHg 80%
13:00 +19°C° 0 mm 3 m/s 746 mmHg 76%
14:00 +20°C° 0 mm 3 m/s 746 mmHg 73%
15:00 +20°C° 0.1 mm 3 m/s 745 mmHg 76%
16:00 +19°C° 0.1 mm 3 m/s 745 mmHg 78%
17:00 +19°C° 0.1 mm 3 m/s 745 mmHg 81%
18:00 +18°C° 0 mm 3 m/s 745 mmHg 83%
19:00 +18°C° 0 mm 3 m/s 745 mmHg 85%
20:00 +17°C° 0 mm 3 m/s 745 mmHg 88%
21:00 +17°C° 0 mm 3 m/s 745 mmHg 88%
22:00 +17°C° 0 mm 3 m/s 745 mmHg 88%
23:00 +17°C° 0 mm 3 m/s 745 mmHg 89%
Voir plus